Sarnia Airport, Ontario

2:31 AM EDT on July 29, 2016 (GMT -0400)
Sarnia (Hadfield)

Weather History for CYZR - February, 2013

Change the Weather History Date:

Wednesday, February 20, 2013

  Actual Average Record
Temperature  
Mean Temperature 24 °F -  
Max Temperature 31 °F 35 °F 59 °F (1983)
Min Temperature 17 °F 20 °F -11 °F (2015)
Degree Days  
Heating Degree Days 41    
Moisture  
Dew Point 11 °F    
Average Humidity 72    
Maximum Humidity 94    
Minimum Humidity 58    
Precipitation  
Precipitation 0.67 in - - ()
Sea Level Pressure  
Sea Level Pressure 30.05 in    
Wind  
Wind Speed 14 mph ()    
Max Wind Speed 28 mph    
Max Gust Speed 34 mph    
Visibility 7.1 miles    
Events Snow    
Averages and records for this station are not official NWS values.
T = Trace of Precipitation, MM = Missing Value Source: Averaged Metar Reports

Daily Weather History Graph

Daily Weather History Graph

Search for Another Location

Airport or City:

Trip Planner

Search our weather history database for the weather conditions in past years. The results will help you decide how hot, cold, wet, or windy it might be!

Date:

Astronomy

Feb. 20, 2013 Rise Set
Actual Time 7:19 AM EST 6:07 PM EST
Civil Twilight 6:50 AM EST 6:36 PM EST
Nautical Twilight 6:17 AM EST 7:09 PM EST
Astronomical Twilight 5:44 AM EST 7:42 PM EST
Moon 1:23 PM EST (2/20) 3:42 AM EST (2/20)
Length of Visible Light 11h 46m
Length of Day
10h 48m
Waxing Gibbous, 76% of the Moon is Illuminated
Feb 20
Waxing Gibbous
Feb 25
Full
Mar 4
Last Quarter
Mar 11
New
Mar 19
First Quarter

Hourly Weather History & Observations

Time (EST) Temp. Windchill Dew Point Humidity Pressure Visibility Wind Dir Wind Speed Gust Speed Precip Events Conditions
12:00 AM 19.4 °F 6.0 °F 12.2 °F 74% 29.87 in 9.0 mi West 13.8 mph 27.6 mph N/A   Partly Cloudy
12:45 AM 19.4 °F 4.1 °F 12.2 °F 74% 29.88 in 9.0 mi West 18.4 mph 26.5 mph N/A Snow Light Snow
1:00 AM 20 °F - 19 °F 94% 29.92 in - ESE 1.2 mph - -  
1:00 AM 19.4 °F 6.6 °F 12.2 °F 74% 29.88 in 9.0 mi West 12.7 mph 24.2 mph N/A Snow Light Snow
1:01 AM 19.4 °F 5.0 °F 12.2 °F 74% 29.88 in 9.0 mi West 16.1 mph 24.2 mph N/A   Overcast
1:10 AM 19.4 °F 6.0 °F 12.2 °F 74% 29.88 in 9.0 mi West 13.8 mph 28.8 mph N/A Snow Light Snow
2:00 AM 19.4 °F 5.5 °F 14.0 °F 80% 29.90 in 7.0 mi West 15.0 mph 25.3 mph N/A Snow Light Snow
2:08 AM 19.4 °F 4.1 °F 14.0 °F 80% 29.90 in 5.0 mi West 18.4 mph 25.3 mph N/A Snow Light Snow
2:35 AM 19.4 °F 6.0 °F 14.0 °F 80% 29.91 in 6.0 mi West 13.8 mph 24.2 mph N/A Snow Light Snow
3:00 AM 19.4 °F 5.5 °F 14.0 °F 80% 29.91 in 5.0 mi West 15.0 mph 23.0 mph N/A Snow Light Snow
3:08 AM 19.4 °F 6.0 °F 14.0 °F 80% 29.91 in 4.0 mi West 13.8 mph 24.2 mph N/A Snow Light Snow
3:16 AM 19.4 °F 5.0 °F 14.0 °F 80% 29.92 in 2.2 mi WNW 16.1 mph 24.2 mph N/A Snow Light Snow
3:18 AM 17.6 °F 3.2 °F 14.0 °F 86% 29.92 in 1.8 mi WNW 15.0 mph 24.2 mph N/A Snow Light Snow
3:46 AM 17.6 °F 1.7 °F 12.2 °F 79% 29.93 in 2.0 mi WNW 18.4 mph 28.8 mph N/A Snow Light Snow
3:48 AM 17.6 °F 3.7 °F 12.2 °F 79% 29.93 in 3.0 mi WNW 13.8 mph 25.3 mph N/A Snow Light Snow
3:51 AM 17.6 °F 3.2 °F 12.2 °F 79% 29.93 in 7.0 mi WNW 15.0 mph 25.3 mph N/A Snow Light Snow
3:53 AM 17.6 °F 2.7 °F 12.2 °F 79% 29.93 in 9.0 mi WNW 16.1 mph 25.3 mph N/A Snow Light Snow
4:00 AM 17.6 °F 3.2 °F 10.4 °F 73% 29.94 in 9.0 mi WNW 15.0 mph 21.9 mph N/A Snow Light Snow
4:09 AM 17.6 °F 1.3 °F 8.6 °F 68% 29.94 in 9.0 mi WNW 19.6 mph 27.6 mph N/A   Overcast
5:00 AM 15.8 °F 1.4 °F 5.0 °F 62% 29.96 in 9.0 mi WNW 13.8 mph 20.7 mph N/A   Mostly Cloudy
6:00 AM 17.6 °F 1.3 °F 6.8 °F 63% 29.98 in 9.0 mi West 19.6 mph - N/A   Overcast
7:00 AM 27 °F - 23 °F 80% 29.80 in - East 8.1 mph - -  
7:00 AM 17.6 °F 4.3 °F 8.6 °F 68% 29.99 in 9.0 mi WNW 12.7 mph 21.9 mph N/A   Overcast
7:21 AM 17.6 °F 3.7 °F 8.6 °F 68% 30.00 in 9.0 mi West 13.8 mph 21.9 mph N/A Snow Light Snow
7:37 AM 17.6 °F 3.2 °F 8.6 °F 68% 30.01 in 9.0 mi WNW 15.0 mph 25.3 mph N/A   Overcast
7:49 AM 17.6 °F 2.7 °F 8.6 °F 68% 30.01 in 9.0 mi West 16.1 mph 26.5 mph N/A Snow Light Snow
8:59 AM 17.6 °F 3.2 °F 10.4 °F 73% 30.04 in 5.0 mi West 15.0 mph 26.5 mph N/A Snow Light Snow
9:00 AM 17.6 °F 3.7 °F 10.4 °F 73% 30.04 in 5.0 mi WNW 13.8 mph 20.7 mph N/A Snow Light Snow
9:09 AM 17.6 °F 2.2 °F 10.4 °F 73% 30.05 in 6.0 mi WNW 17.3 mph 26.5 mph N/A Snow Light Snow
9:24 AM 17.6 °F 2.2 °F 10.4 °F 73% 30.05 in 5.0 mi WNW 17.3 mph 27.6 mph N/A Snow Light Snow
9:29 AM 17.6 °F 2.2 °F 10.4 °F 73% 30.05 in 2.5 mi WNW 17.3 mph 27.6 mph N/A Snow Light Snow
9:35 AM 17.6 °F 5.0 °F 12.2 °F 79% 30.05 in 1.8 mi WNW 11.5 mph 23.0 mph N/A Snow Light Snow
9:38 AM 17.6 °F 2.7 °F 12.2 °F 79% 30.05 in 1.2 mi WNW 16.1 mph - N/A Snow Light Snow
9:56 AM 17.6 °F 2.2 °F 10.4 °F 73% 30.06 in 3.0 mi NW 17.3 mph 26.5 mph N/A Snow Light Snow
10:00 AM 17.6 °F 1.3 °F 10.4 °F 73% 30.06 in 5.0 mi NW 19.6 mph 29.9 mph N/A Snow Light Snow
10:01 AM 17.6 °F 1.3 °F 10.4 °F 73% 30.06 in 3.0 mi NW 19.6 mph 29.9 mph N/A Snow Light Snow
10:03 AM 17.6 °F 1.7 °F 12.2 °F 79% 30.06 in 2.5 mi NW 18.4 mph 29.9 mph N/A Snow Light Snow
10:11 AM 17.6 °F 1.3 °F 8.6 °F 68% 30.06 in 3.0 mi NW 19.6 mph 31.1 mph N/A Snow Light Snow
10:12 AM 17.6 °F 1.3 °F 10.4 °F 73% 30.06 in 4.0 mi NW 19.6 mph 31.1 mph N/A Snow Light Snow
10:20 AM 17.6 °F 0.9 °F 10.4 °F 73% 30.07 in 2.5 mi NW 20.7 mph 29.9 mph N/A Snow Light Snow
10:29 AM 17.6 °F 0.9 °F 8.6 °F 68% 30.07 in 3.0 mi NW 20.7 mph 31.1 mph N/A Snow Light Snow
10:34 AM 17.6 °F -1.3 °F 6.8 °F 63% 30.07 in 6.0 mi NW 27.6 mph 34.5 mph N/A Snow Light Snow
10:36 AM 17.6 °F 0.5 °F 8.6 °F 68% 30.07 in 7.0 mi NW 21.9 mph 34.5 mph N/A   Mostly Cloudy
11:00 AM 19.4 °F 2.1 °F 6.8 °F 58% 30.08 in 9.0 mi NW 24.2 mph 31.1 mph N/A   Mostly Cloudy
12:00 PM 17.6 °F 1.3 °F 6.8 °F 63% 30.10 in 9.0 mi NW 19.6 mph 32.2 mph N/A   Mostly Cloudy
1:00 PM 28 °F - 27 °F 93% 29.58 in - East 5.8 mph - -  
1:00 PM 19.4 °F 3.6 °F 8.6 °F 63% 30.11 in 9.0 mi NW 19.6 mph 26.5 mph N/A   Overcast
1:47 PM 19.4 °F 5.0 °F 10.4 °F 68% 30.12 in 9.0 mi NW 16.1 mph - N/A Snow Light Snow
2:00 PM 19.4 °F 6.0 °F 10.4 °F 68% 30.13 in 9.0 mi NW 13.8 mph 19.6 mph N/A Snow Light Snow
2:08 PM 19.4 °F 7.2 °F 10.4 °F 68% 30.13 in 9.0 mi NW 11.5 mph 18.4 mph N/A   Overcast
2:13 PM 19.4 °F 6.0 °F 10.4 °F 68% 30.13 in 9.0 mi NW 13.8 mph - N/A Snow Light Snow
2:33 PM 21.2 °F 8.3 °F 10.4 °F 63% 30.13 in 9.0 mi WNW 13.8 mph 20.7 mph N/A   Overcast
2:36 PM 21.2 °F 10.1 °F 10.4 °F 63% 30.13 in 9.0 mi WNW 10.4 mph 20.7 mph N/A Snow Light Snow
2:50 PM 21.2 °F 8.9 °F 10.4 °F 63% 30.13 in 9.0 mi NW 12.7 mph 19.6 mph N/A   Overcast
2:54 PM 21.2 °F 8.9 °F 10.4 °F 63% 30.14 in 9.0 mi NW 12.7 mph 19.6 mph N/A Snow Light Snow
3:00 PM 21.2 °F 10.1 °F 10.4 °F 63% 30.14 in 9.0 mi NW 10.4 mph 18.4 mph N/A Snow Light Snow
3:03 PM 21.2 °F 9.5 °F 8.6 °F 58% 30.14 in 9.0 mi WNW 11.5 mph 18.4 mph N/A   Overcast
4:00 PM 21.2 °F 7.8 °F 8.6 °F 58% 30.15 in 9.0 mi WNW 15.0 mph - N/A   Overcast
5:00 PM 21.2 °F 7.3 °F 10.4 °F 63% 30.17 in 9.0 mi WNW 16.1 mph 23.0 mph N/A   Overcast
5:03 PM 21.2 °F 7.3 °F 10.4 °F 63% 30.18 in 9.0 mi WNW 16.1 mph 23.0 mph N/A Snow Light Snow
5:20 PM 21.2 °F 7.8 °F 10.4 °F 63% 30.18 in 9.0 mi WNW 15.0 mph - N/A   Overcast
5:33 PM 21.2 °F 8.3 °F 10.4 °F 63% 30.18 in 9.0 mi WNW 13.8 mph 21.9 mph N/A Snow Light Snow
6:00 PM 21.2 °F 9.5 °F 10.4 °F 63% 30.19 in 9.0 mi WNW 11.5 mph 18.4 mph N/A Snow Light Snow
7:00 PM 29 °F - 28 °F 94% 29.48 in - ENE 3.5 mph - -  
7:00 PM 21.2 °F 8.3 °F 12.2 °F 68% 30.20 in 9.0 mi WNW 13.8 mph - N/A Snow Light Snow
8:00 PM 21.2 °F 6.4 °F 12.2 °F 68% 30.20 in 9.0 mi NW 18.4 mph 24.2 mph N/A Snow Light Snow
9:00 PM 19.4 °F 5.5 °F 10.4 °F 68% 30.20 in 9.0 mi NW 15.0 mph 26.5 mph N/A Snow Light Snow
10:00 PM 19.4 °F 4.1 °F 12.2 °F 74% 30.21 in 9.0 mi NW 18.4 mph 27.6 mph N/A Snow Light Snow
10:08 PM 19.4 °F 5.0 °F 12.2 °F 74% 30.21 in 9.0 mi NW 16.1 mph 24.2 mph N/A Snow Light Snow
10:12 PM 19.4 °F 4.1 °F 14.0 °F 80% 30.21 in 9.0 mi NW 18.4 mph - N/A Snow Light Snow
10:18 PM 19.4 °F 3.2 °F 12.2 °F 74% 30.22 in 9.0 mi NW 20.7 mph - N/A Snow Light Snow
10:29 PM 19.4 °F 4.1 °F 12.2 °F 74% 30.22 in 9.0 mi NW 18.4 mph 25.3 mph N/A Snow Light Snow
10:30 PM 19.4 °F 5.0 °F 12.2 °F 74% 30.22 in 9.0 mi NW 16.1 mph 25.3 mph N/A Snow Light Snow
10:36 PM 19.4 °F 3.2 °F 12.2 °F 74% 30.22 in 9.0 mi NW 20.7 mph 27.6 mph N/A Snow Light Snow
10:45 PM 19.4 °F 4.1 °F 10.4 °F 68% 30.22 in 6.0 mi NW 18.4 mph 27.6 mph N/A Snow Light Snow
10:49 PM 19.4 °F 4.1 °F 10.4 °F 68% 30.22 in 9.0 mi NW 18.4 mph 27.6 mph N/A Snow Light Snow
11:00 PM 19.4 °F 2.8 °F 10.4 °F 68% 30.22 in 9.0 mi NNW 21.9 mph - N/A Snow Light Snow